Regional Weather Roundup
Issued by NWS Burlington, VT

Current Version | Previous Version | Text Only | Print | Product List | Glossary On
Versions: 1 2 3 4 5 6 7 8 9 10 11 12 13 14 15 16 17 18 19 20 21 22 23 24 25 26 27 28 29 30 31 32 33 34 35 36 37 38 39 40 41 42 43 44 45 46 47 48 49 50
000
ASUS41 KBTV 311130
RWRBTV
VERMONT REGIONAL WEATHER ROUNDUP
NATIONAL WEATHER SERVICE BURLINGTON VT
700 AM EDT FRI OCT 31 2014

NOTE: "FAIR" INDICATES FEW OR NO CLOUDS BELOW 12,000 FEET WITH NO
SIGNIFICANT WEATHER AND/OR OBSTRUCTIONS TO VISIBILITY.

* THESE REPORTS ARE NOT UNDER NWS QUALITY CONTROL AND/OR DO NOT
  REPORT WEATHER SUCH AS PRECIPITATION AND FOG.

VTZ001>019-311200-
_____VERMONT_____


CITY           SKY/WX    TMP DP  RH WIND       PRES   REMARKS
BURLINGTON     PTSUNNY   38  34  85 NE3       30.04S
MONTPELIER     MOSUNNY   32  30  92 CALM      30.05S
MORRISVILLE    MOSUNNY   34  32  92 CALM      30.04S
ST. JOHNSBURY*   N/A     38  35  89 MISG      30.01S
LYNDONVILLE*   PTSUNNY   36  29  78 CALM      30.03R
MIDDLEBURY*    FAIR      34  34 100 CALM      30.03S
RUTLAND*       SUNNY     34  32  93 SE7       30.03R
SPRINGFIELD    CLOUDY    40  38  93 CALM      30.04R
HIGHGATE*      FAIR      30  29  96 CALM      30.05R
NEWPORT*       FAIR      33  30  88 CALM      30.02S
BENNINGTON     FOG       29  27  92 CALM      30.02S VSB 1/4
SUTTON*          N/A     32 N/A N/A MISG        N/A
MT. MANSFIELD*   N/A     27 N/A N/A NW6         N/A

_____LAKE CHAMPLAIN_____


CITY           SKY/WX    TMP DP  RH WIND       PRES   REMARKS
BURTON ISLAND*   N/A     41  32  70 NE1         N/A
COLCHESTER RF*   N/A     43  36  75 N7          N/A
DIAMOND ISL*     N/A     41  37  87 E6          N/A

$$

NYZ007-026>031-035-052-083-311200-
_____NORTHERN NEW YORK_____


CITY           SKY/WX    TMP DP  RH WIND       PRES   REMARKS
PLATTSBURGH    MOSUNNY   30  29  96 CALM      30.04S
SARANAC LAKE   MOSUNNY   27  25  92 CALM      29.98R FOG
MASSENA        MOSUNNY   33  29  85 CALM      30.05F
OGDENSBURG*    SUNNY     34  30  86 CALM      30.04R
POTSDAM*       SUNNY     34  34 100 CALM      30.04R
WATERTOWN      CLOUDY    34  29  82 NE3       30.02S
FT DRUM        PTSUNNY   33  33  99 SE3       30.00S
ALBANY         FOG       32  30  92 CALM      30.05S VSB 1/16
GLENS FALLS    SUNNY     29  25  85 CALM      30.05R

$$
NHZ002-005-011-311200-
_____NEW HAMPSHIRE_____


CITY           SKY/WX    TMP DP  RH WIND       PRES   REMARKS
LEBANON        CLOUDY    40  36  86 S3        30.03R
KEENE          CLOUDY    37  30  75 CALM      30.04R
MT WASHINGTON  FOG       18  18 100 NW21        N/A  VSB 1/16WCI   1
PLYMOUTH       CLOUDY    37  37 100 CALM      30.04R
WHITEFIELD     CLOUDY    37  34  89 CALM      30.01S

$$

_____REGIONAL QUEBEC LOCATIONS_____


CITY           SKY/WX    TMP DP  RH WIND       PRES   REMARKS
MONTREAL       PTSUNNY   36  27  69 NE8       30.06R
QUEBEC CITY    CLOUDY    37  34  87 W3        30.02R
SHERBROOKE     MOSUNNY   32  30  93 CALM      30.02R

_____REGIONAL ONTARIO LOCATIONS_____


CITY           SKY/WX    TMP DP  RH WIND       PRES   REMARKS
OTTAWA         PTSUNNY   34  27  75 N6        30.05S

______KEY______
VSB  - VISIBILITY IN MILES
WCI  - WIND CHILL INDEX
HX   - HEAT INDEX
$$
NNNN



USA.gov is the U.S. government's official web portal to all federal, state and local government web resources and services.